Home   Weather   Codrington (Barbuda)   Past weeks
Flag for Antigua and Barbuda

Past Weather in Codrington (Barbuda), Antigua and Barbuda — Yesterday and Last 2 Weeks

Now
82 °F

Scattered clouds.


Feels Like: 87 °F
Forecast: N/A
Wind: 9 mph from East

Location: Vc Bird International Antigua Airport

Current Time: Oct 20, 2019 at 5:51:14 pm

Latest Report: Oct 20, 2019 at 5:00 pm


Visibility: N/A

Pressure: 29.92 "Hg

Humidity: 70%

Dew Point: 72 °F

Location of Codrington (Barbuda)Location

Past Weather in Codrington (Barbuda) — Graph

°F

Codrington (Barbuda) Temperature Yesterday

Maximum temperature yesterday: 84 °F (at 12:00 pm)
Minimum temperature yesterday: 77 °F (at 5:00 am)
Average temperature yesterday: 81 °F

High & Low Weather Summary for the Past Weeks

 TemperatureHumidityPressure
High90 °F (Oct 11, 11:00 am)94% (Oct 14, 4:00 am)30.01 "Hg (Oct 14, 4:00 am)
Low72 °F (Oct 18, 12:32 pm)52% (Oct 11, 1:00 pm)29.83 "Hg (Oct 10, 2:00 pm)
Average83 °F75%29.93 "Hg
* Reported Oct 5 4:00 pm — Oct 20 4:00 pm, Codrington (Barbuda). Weather by CustomWeather, © 2019

Note: Actual official high and low records may vary slightly from our data, if they occured in-between our weather recording intervals... More about our weather records

Advertising

Codrington (Barbuda) Weather History for the Previous 24 Hours

Scroll right to see more
 ConditionsComfort  
Time TempWeatherWind HumidityBarometerVisibility
4:00 pm
Sun, Oct 20
84 °FScattered clouds.8 mph70%29.92 "HgN/A
3:00 pm86 °FPassing clouds.9 mph62%29.92 "HgN/A
2:00 pm86 °FPassing clouds.12 mph62%29.95 "HgN/A
1:00 pm86 °FPartly sunny.13 mph66%29.95 "HgN/A
12:00 pm86 °FScattered clouds.13 mph66%29.98 "HgN/A
11:00 am88 °FScattered clouds.13 mph62%30.01 "HgN/A
10:00 am86 °FPartly sunny.12 mph66%30.01 "HgN/A
9:00 am86 °FPartly sunny.12 mph66%30.01 "HgN/A
8:00 am84 °FScattered clouds.12 mph70%29.98 "HgN/A
7:00 am81 °FScattered clouds.9 mph79%29.98 "HgN/A
6:00 am81 °FPassing clouds.9 mph79%29.95 "HgN/A
5:00 am81 °FPassing clouds.8 mph79%29.95 "HgN/A
12:00 am82 °FPassing clouds.7 mph79%29.98 "HgN/A
10:00 pm
Sat, Oct 19
79 °FPassing clouds.3 mph84%29.98 "HgN/A
9:00 pm79 °FPassing clouds.1 mph84%29.98 "HgN/A
8:00 pm81 °FPassing clouds.7 mph79%29.98 "HgN/A
7:00 pm82 °FPassing clouds.6 mph74%29.95 "HgN/A
6:00 pm82 °FPassing clouds.3 mph74%29.95 "HgN/A
5:00 pm82 °FPartly sunny.6 mph79%29.92 "HgN/A
Weather by CustomWeather, © 2019

See weather overview